Location: Newark
(39.7100°N, 90.2000°W)
Time: 22:08:00
(UTC+00:00)

N. Korean satellite - Visible Passes

Search period start: 19 February 2020 00:00
Search period end: 29 February 2020 00:00
Orbit: 456 x 505 km, 97.2° (Epoch: 19 February)

Date Brightness Start Highest point End Pass type
(mag) Time Alt. Az. Time Alt. Az. Time Alt. Az.
19 Feb 10.0 10:46:52 10° ENE 10:48:48 14° E 10:50:43 10° ESE visible
19 Feb 7.2 12:18:53 10° N 12:22:18 35° WNW 12:25:42 10° SW visible
20 Feb 6.5 11:53:07 10° N 11:56:51 79° WNW 12:00:32 10° SSW visible
21 Feb 7.8 11:27:43 10° NNE 11:31:18 45° E 11:34:51 10° S visible
22 Feb 9.3 11:02:44 10° NE 11:05:40 22° E 11:08:34 10° SSE visible
23 Feb 10.3 10:39:10 10° ENE 10:39:55 10° E 10:40:42 10° ESE visible
23 Feb 6.9 12:09:58 10° N 12:13:33 46° WNW 12:17:04 10° SSW visible
24 Feb 6.8 11:44:20 10° NNE 11:48:04 79° ESE 11:51:44 10° S visible
25 Feb 8.4 11:19:03 10° NNE 11:22:29 35° E 11:25:51 10° SSE visible
26 Feb 9.7 10:54:18 10° NE 10:56:47 17° E 10:59:15 10° SE visible
27 Feb 6.6 12:01:06 10° N 12:04:45 60° WNW 12:08:21 10° SSW visible
28 Feb 7.3 11:35:34 10° NNE 11:39:13 59° E 11:42:49 10° S visible
